Location: ??????
(42.0089°N, 44.3281°E)
Time: 20:47:48
(UTC+00:00)

Cosmos 2333 Rocket - Visible Passes

Search period start: 25 May 2022 00:00
Search period end: 04 June 2022 00:00
Orbit: 841 x 861 km, 70.8° (Epoch: 25 May)

Date Brightness Start Highest point End Pass type
(mag) Time Alt. Az. Time Alt. Az. Time Alt. Az.
25 May 3.9 19:13:47 18° E 19:13:47 18° E 19:16:40 10° ENE visible
25 May 2.4 20:55:45 56° WSW 20:56:35 62° WNW 21:02:13 10° NNE visible
25 May 4.6 22:40:10 10° WNW 22:42:05 12° NW 22:43:59 10° NNW visible
26 May 3.8 19:01:21 18° E 19:01:21 18° E 19:04:26 10° ENE visible
26 May 2.5 20:43:20 53° WSW 20:44:20 62° WNW 20:49:59 10° NNE visible
26 May 4.7 22:27:56 10° WNW 22:29:50 12° NW 22:31:45 10° NNW visible
27 May 3.7 18:48:53 18° E 18:48:53 18° E 18:52:12 10° ENE visible
27 May 2.5 20:30:51 49° WSW 20:32:06 62° WNW 20:37:45 10° NNE visible
27 May 4.7 22:15:42 10° WNW 22:17:36 12° NW 22:19:31 10° NNW visible
28 May 3.7 18:36:20 19° E 18:36:20 19° E 18:39:58 10° ENE visible
28 May 2.5 20:18:18 45° WSW 20:19:52 62° WNW 20:25:31 10° NNE visible
28 May 4.7 22:03:28 10° WNW 22:05:22 12° NW 22:07:17 10° NNW visible
29 May 3.6 18:23:42 19° ESE 18:23:56 19° E 18:27:44 10° ENE visible
29 May 2.5 20:05:39 39° SW 20:07:38 62° WNW 20:13:17 10° NNE visible
29 May 4.8 21:51:14 10° WNW 21:53:08 12° NW 21:55:03 10° NNW visible
30 May 3.6 18:10:57 18° ESE 18:11:42 19° E 18:15:30 10° ENE visible
30 May 2.5 19:52:54 33° SW 19:55:24 62° WNW 20:01:03 10° NNE visible
30 May 4.8 21:39:00 10° WNW 21:40:54 12° NW 21:42:48 10° NNW visible
31 May 3.6 17:58:06 17° ESE 17:59:28 19° E 18:03:17 10° ENE visible
31 May 2.6 19:40:02 26° SW 19:43:09 62° WNW 19:48:48 10° NNE visible
31 May 4.9 21:26:46 10° WNW 21:28:40 12° NW 21:30:34 10° NNW visible
01 Jun 3.6 17:45:04 15° SE 17:47:14 19° E 17:51:02 10° ENE visible
01 Jun 2.6 19:26:59 20° SW 19:30:55 62° WNW 19:36:34 10° NNE visible
01 Jun 4.9 21:14:32 10° WNW 21:16:25 12° NW 21:18:20 10° NNW visible
02 Jun 3.6 17:31:49 12° SE 17:35:00 19° E 17:38:48 10° ENE visible
02 Jun 2.6 19:13:43 13° SW 19:18:41 62° WNW 19:24:20 10° NNE visible
02 Jun 4.9 21:02:18 10° WNW 21:04:11 12° NW 21:06:06 10° NNW visible
03 Jun 3.6 17:18:58 10° SE 17:22:45 19° E 17:26:34 10° ENE visible
03 Jun 2.6 19:00:52 10° SW 19:06:27 62° WNW 19:12:06 10° NNE visible
03 Jun 5.0 20:50:04 10° WNW 20:51:58 12° NW 20:53:51 10° NNW visible
